Temp
-7 -7 -7 -7 -7 -7 -7 -7 -7 -7 -7 -7 -7 -7 -8 -7 -7 -7 -7 -7 -7 -7 -7 -6 -7 -7 -7 -7 -8 -8 -8 -8 -8 -8 -7 -8 -8 -7 -8 -8 -8 -8 -8 -7 -8
-7 -7 -7 -7 -7 -7 -7 -7 -7 -7 -7 -7 -8 -8 -8 -8 -7 -7 -7 -7 -7 -7 -7 -7 -7 -7 -7 -7 -8 -8 -8 -8 -8 -8 -8 -8 -8 -8 -8 -8 -8 -8 -8 -8 -8
-7 -7 -7 -7 -7 -7 -7 -7 -7 -7 -7 -7 -7 -7 -8 -8 -8 -8 -8 -8 -7 -7 -7 -7 -7 -7 -7 -7 -8 -8 -8 -8 -8 -8 -8 -8 -8 -8 -8 -8 -8 -8 -8 -8 -8
-7 -7 -7 -7 -7 -7 -7 -7 -7 -7 -7 -7 -7 -7 -7 -8 -8 -8 -8 -8 -8 -7 -7 -7 -8 -8 -8 -8 -8 -8 -8 -8 -8 -8 -8 -8 -8 -8 -8 -8 -8 -8 -8 -8 -8
-8 -8 -8 -8 -8 -8 -8 -8 -8 -8 -8 -8 -8 -8 -8 -8 -8 -8 -8 -8 -8 -8 -8 -8 -8 -8 -8 -9 -9 -9 -8 -8 -8 -8 -8 -8 -8 -8 -8 -8 -8 -8 -8 -8 -8
-8 -8 -8 -8 -8 -8 -8 -8 -8 -8 -8 -8 -8 -8 -8 -8 -8 -8 -8 -8 -8 -7 -7 -8 -8 -8 -8 -9 -9 -9 -9 -9 -9 -9 -9 -9 -9 -9 -9 -9 -9 -9 -9 -9 -9
-8 -8 -8 -8 -8 -8 -8 -8 -8 -8 -8 -8 -8 -8 -8 -8 -8 -8 -8 -8 -8 -8 -7 -8 -8 -8 -8 -8 -8 -9 -9 -9 -9 -9 -9 -9 -9 -9 -9 -9 -9 -9 -9 -9 -9
-9 -8 -8 -8 -8 -8 -8 -8 -8 -8 -8 -9 -8 -8 -8 -8 -8 -8 -8 -8 -8 -8 -8 -8 -8 -8 -8 -8 -8 -8 -9 -9 -8 -9 -8 -9 -9 -9 -9 -9 -9 -9 -9 -9 -10
-9 -9 -9 -9 -9 -9 -9 -8 -9 -9 -9 -9 -9 -9 -9 -8 -8 -8 -8 -8 -8 -8 -8 -8 -8 -8 -8 -8 -8 -9 -9 -9 -9 -9 -9 -9 -10 -9 -9 -10 -10 -10 -10 -10 -10
-9 -9 -9 -9 -9 -9 -9 -9 -9 -9 -9 -9 -9 -9 -9 -9 -8 -8 -8 -8 -8 -8 -8 -8 -8 -8 -8 -8 -9 -9 -9 -9 -10 -9 -10 -10 -11 -10 -10 -11 -11 -11 -11 -11 -11
-9 -9 -9 -9 -9 -9 -9 -9 -9 -9 -9 -9 -9 -9 -9 -9 -9 -8 -8 -8 -8 -8 -8 -8 -8 -8 -8 -9 -9 -9 -10 -10 -10 -11 -11 -11 -12 -11 -12 -12 -12 -12 -12 -12 -12
-9 -9 -9 -9 -9 -9 -9 -9 -9 -9 -9 -9 -9 -9 -9 -9 -8 -8 -8 -8 -8 -8 -8 -8 -8 -9 -9 -9 -10 -10 -11 -11 -12 -12 -12 -12 -12 -13 -13 -13 -13 -13 -13 -13 -13
-10 -10 -10 -9 -9 -9 -10 -10 -10 -9 -9 -9 -9 -9 -9 -9 -9 -9 -9 -9 -9 -9 -9 -9 -9 -9 -10 -10 -10 -11 -12 -12 -12 -12 -12 -12 -13 -13 -13 -13 -13 -13 -13 -13 -13
-11 -10 -10 -10 -10 -10 -10 -10 -10 -10 -10 -9 -9 -9 -9 -9 -9 -9 -9 -9 -9 -9 -9 -9 -10 -10 -10 -11 -11 -12 -12 -12 -12 -12 -13 -13 -14 -15 -13 -14 -14 -14 -14 -14 -14
-11 -11 -10 -10 -10 -10 -10 -10 -10 -10 -10 -9 -9 -9 -9 -9 -9 -9 -9 -9 -9 -9 -9 -10 -10 -10 -11 -11 -12 -12 -12 -12 -12 -12 -13 -13 -14 -16 -14 -14 -14 -14 -14 -14 -14
-11 -11 -11 -11 -11 -11 -11 -11 -11 -11 -10 -10 -10 -10 -10 -10 -10 -9 -9 -9 -9 -10 -10 -10 -10 -10 -11 -11 -12 -12 -12 -13 -13 -13 -13 -13 -14 -16 -16 -14 -14 -14 -15 -15 -15
-11 -11 -11 -11 -11 -11 -11 -11 -11 -11 -11 -10 -10 -10 -10 -10 -10 -10 -10 -10 -10 -10 -10 -10 -11 -11 -11 -11 -12 -12 -13 -13 -13 -14 -15 -14 -14 -16 -15 -14 -15 -15 -15 -15 -15
-11 -11 -11 -11 -11 -12 -11 -11 -11 -11 -11 -11 -11 -10 -10 -10 -10 -10 -10 -10 -10 -10 -10 -11 -11 -11 -12 -12 -12 -13 -13 -13 -14 -14 -14 -14 -15 -15 -14 -15 -15 -15 -15 -15 -15
-11 -11 -12 -12 -11 -11 -12 -11 -11 -11 -11 -11 -11 -11 -11 -11 -11 -11 -10 -10 -10 -11 -11 -11 -11 -12 -12 -12 -13 -13 -13 -13 -14 -14 -14 -16 -15 -15 -15 -14 -15 -15 -15 -15 -15
-12 -12 -12 -12 -12 -12 -12 -12 -12 -11 -11 -11 -11 -11 -11 -11 -11 -11 -11 -11 -11 -11 -11 -11 -11 -12 -12 -13 -13 -13 -13 -14 -14 -14 -14 -16 -15 -15 -15 -15 -15 -15 -15 -15 -15
-13 -13 -13 -12 -12 -12 -12 -12 -12 -12 -12 -12 -12 -11 -11 -11 -11 -11 -11 -11 -11 -11 -12 -12 -12 -12 -13 -13 -13 -13 -14 -14 -14 -15 -15 -15 -17 -15 -15 -15 -15 -15 -15 -15 -15
-13 -13 -13 -13 -13 -13 -13 -13 -12 -12 -12 -12 -12 -12 -12 -12 -12 -12 -12 -12 -12 -12 -12 -12 -12 -12 -13 -13 -14 -14 -14 -14 -14 -15 -15 -15 -15 -15 -15 -15 -15 -15 -15 -15 -15
-13 -13 -13 -14 -13 -13 -13 -13 -13 -13 -13 -12 -12 -12 -12 -12 -12 -12 -12 -12 -12 -12 -12 -13 -13 -13 -13 -14 -14 -14 -14 -14 -15 -15 -15 -15 -16 -16 -15 -15 -15 -15 -15 -15 -15
-14 -13 -13 -14 -14 -14 -13 -13 -13 -13 -13 -13 -12 -12 -12 -13 -13 -13 -13 -13 -13 -12 -13 -13 -13 -14 -14 -14 -14 -14 -14 -15 -15 -15 -15 -16 -15 -16 -16 -16 -15 -15 -15 -15 -15
-14 -13 -13 -13 -14 -14 -14 -14 -14 -13 -13 -13 -13 -13 -13 -13 -14 -14 -13 -13 -13 -13 -13 -13 -14 -14 -14 -14 -15 -15 -15 -15 -15 -15 -16 -16 -16 -16 -16 -15 -15 -15 -15 -15 -15
-14 -14 -14 -13 -14 -14 -14 -14 -14 -14 -14 -14 -14 -13 -13 -14 -14 -14 -14 -13 -14 -14 -14 -14 -14 -14 -14 -14 -15 -15 -15 -15 -16 -16 -16 -16 -16 -16 -16 -15 -15 -15 -15 -15 -15
-14 -14 -14 -14 -14 -14 -14 -14 -14 -14 -14 -14 -14 -14 -14 -13 -13 -14 -14 -14 -14 -14 -14 -14 -14 -15 -15 -15 -15 -15 -15 -16 -16 -16 -16 -16 -16 -16 -16 -15 -16 -15 -15 -15 -15
Height
5870 5869 5869 5868 5867 5866 5866 5865 5865 5865 5864 5864 5864 5864 5864 5863 5863 5863 5863 5863 5863 5863 5863 5863 5863 5864 5864 5865 5866 5866 5867 5866 5867 5867 5868 5869 5869 5870 5871 5872 5872 5873 5873 5876 5876
5869 5868 5867 5866 5866 5865 5864 5864 5863 5863 5862 5862 5862 5862 5862 5862 5862 5861 5862 5861 5861 5861 5861 5861 5860 5861 5861 5861 5861 5862 5862 5862 5862 5862 5862 5863 5863 5865 5866 5865 5864 5867 5868 5869 5871
5868 5867 5866 5865 5864 5863 5862 5862 5861 5861 5861 5861 5860 5860 5860 5860 5860 5860 5860 5859 5859 5859 5859 5858 5858 5858 5858 5858 5858 5858 5857 5857 5857 5857 5858 5858 5858 5858 5859 5859 5861 5860 5861 5864 5864
5867 5866 5865 5864 5863 5862 5861 5861 5860 5860 5859 5859 5859 5858 5858 5858 5860 5858 5857 5857 5856 5856 5856 5855 5855 5855 5854 5854 5854 5854 5853 5853 5853 5853 5854 5854 5854 5854 5853 5853 5853 5853 5853 5854 5855
5865 5864 5863 5862 5861 5860 5860 5859 5859 5858 5857 5857 5856 5856 5856 5856 5856 5855 5854 5854 5854 5854 5853 5853 5852 5852 5852 5851 5850 5849 5849 5849 5849 5849 5848 5848 5848 5847 5846 5846 5846 5845 5845 5844 5844
5863 5862 5861 5859 5859 5858 5857 5857 5856 5856 5854 5854 5853 5853 5853 5854 5853 5852 5852 5851 5850 5850 5850 5850 5849 5849 5849 5848 5848 5846 5845 5845 5845 5844 5844 5843 5842 5841 5840 5839 5838 5838 5837 5836 5836
5862 5860 5859 5857 5857 5856 5855 5854 5853 5853 5852 5851 5851 5851 5851 5851 5850 5850 5849 5848 5847 5847 5847 5847 5846 5846 5845 5845 5844 5842 5841 5840 5840 5839 5837 5837 5835 5834 5833 5832 5831 5830 5828 5827 5827
5860 5858 5857 5855 5854 5853 5853 5852 5851 5850 5850 5849 5849 5849 5849 5848 5848 5847 5846 5845 5845 5844 5844 5844 5844 5843 5842 5841 5839 5838 5836 5834 5834 5832 5832 5831 5823 5827 5825 5824 5823 5821 5820 5818 5817
5857 5855 5854 5853 5852 5851 5851 5850 5849 5848 5848 5847 5847 5847 5847 5846 5845 5844 5843 5842 5842 5841 5841 5840 5839 5838 5837 5836 5834 5833 5831 5830 5825 5825 5823 5823 5817 5818 5815 5814 5812 5811 5810 5808 5806
5854 5853 5852 5850 5849 5849 5848 5848 5847 5846 5846 5845 5845 5846 5845 5844 5842 5842 5841 5840 5839 5838 5837 5836 5835 5833 5832 5831 5829 5826 5825 5821 5818 5815 5814 5812 5810 5807 5806 5804 5803 5800 5798 5797 5795
5850 5849 5849 5848 5846 5846 5846 5845 5846 5845 5843 5843 5843 5842 5841 5840 5840 5839 5838 5837 5836 5836 5833 5831 5829 5827 5825 5824 5822 5820 5818 5815 5810 5808 5806 5803 5802 5798 5797 5795 5793 5790 5788 5787 5785
5845 5845 5844 5844 5843 5842 5842 5841 5841 5841 5841 5840 5840 5840 5839 5837 5837 5835 5835 5834 5832 5830 5828 5827 5824 5822 5819 5816 5815 5813 5811 5809 5806 5803 5801 5799 5796 5793 5790 5788 5785 5784 5781 5779 5776
5841 5842 5841 5840 5839 5839 5838 5837 5836 5836 5837 5837 5837 5836 5835 5835 5833 5832 5832 5830 5828 5826 5824 5821 5819 5817 5815 5812 5810 5808 5807 5804 5802 5799 5795 5795 5791 5788 5784 5782 5779 5777 5775 5772 5770
5837 5836 5836 5835 5836 5833 5833 5832 5831 5831 5832 5834 5833 5833 5832 5830 5830 5829 5827 5827 5825 5823 5820 5817 5815 5812 5811 5808 5806 5804 5802 5800 5798 5795 5793 5788 5788 5781 5778 5776 5773 5771 5768 5766 5763
5832 5831 5830 5830 5829 5828 5829 5828 5827 5827 5827 5829 5829 5828 5827 5827 5827 5825 5824 5822 5821 5819 5817 5814 5811 5809 5807 5805 5802 5800 5798 5796 5793 5790 5788 5783 5782 5777 5773 5769 5767 5765 5762 5759 5756
5827 5826 5825 5825 5825 5823 5823 5823 5823 5824 5822 5823 5823 5822 5822 5822 5822 5821 5820 5818 5817 5815 5813 5810 5807 5805 5803 5801 5799 5797 5795 5792 5790 5787 5783 5780 5778 5778 5768 5766 5762 5758 5755 5753 5750
5819 5820 5819 5819 5819 5818 5818 5818 5819 5817 5818 5819 5818 5817 5817 5817 5817 5816 5815 5814 5813 5812 5809 5807 5804 5802 5801 5799 5796 5794 5791 5789 5786 5782 5781 5775 5772 5769 5763 5761 5758 5754 5751 5748 5744
5810 5813 5813 5813 5813 5813 5813 5813 5813 5812 5812 5813 5812 5812 5811 5811 5811 5811 5810 5809 5808 5806 5804 5802 5800 5798 5796 5794 5792 5790 5788 5785 5782 5779 5777 5769 5767 5760 5759 5755 5752 5749 5746 5742 5738
5801 5803 5805 5806 5806 5806 5807 5807 5806 5806 5807 5807 5806 5806 5806 5806 5806 5805 5804 5804 5803 5801 5800 5797 5795 5793 5792 5790 5789 5786 5784 5781 5777 5774 5770 5767 5761 5755 5754 5751 5747 5744 5741 5737 5732
5794 5794 5797 5798 5798 5798 5800 5799 5799 5799 5800 5800 5800 5800 5799 5799 5800 5799 5798 5798 5797 5796 5794 5792 5791 5790 5789 5786 5784 5782 5779 5775 5771 5768 5766 5765 5757 5753 5749 5747 5743 5740 5736 5732 5727
5786 5786 5787 5789 5790 5791 5791 5792 5792 5792 5792 5793 5792 5793 5792 5792 5792 5793 5793 5792 5791 5790 5789 5787 5785 5785 5783 5781 5778 5777 5774 5772 5768 5765 5760 5758 5756 5747 5744 5742 5738 5734 5731 5726 5721
5777 5777 5779 5779 5781 5782 5783 5783 5784 5785 5785 5785 5785 5785 5785 5785 5785 5785 5785 5785 5785 5784 5783 5782 5780 5778 5778 5776 5774 5772 5770 5767 5762 5758 5754 5751 5750 5743 5740 5736 5731 5728 5723 5719 5714
5766 5767 5769 5770 5770 5772 5773 5774 5775 5776 5776 5777 5776 5776 5776 5777 5778 5778 5778 5778 5778 5777 5777 5776 5775 5774 5772 5772 5769 5766 5762 5761 5757 5754 5750 5746 5744 5736 5734 5730 5725 5720 5717 5712 5707
5755 5756 5757 5759 5761 5761 5764 5765 5767 5767 5768 5768 5768 5767 5767 5768 5769 5770 5771 5772 5771 5771 5770 5770 5770 5768 5768 5766 5763 5760 5756 5754 5751 5748 5745 5741 5738 5733 5728 5723 5719 5715 5711 5706 5699
5741 5744 5745 5747 5750 5752 5753 5756 5756 5758 5759 5760 5761 5760 5760 5760 5760 5761 5763 5765 5764 5764 5764 5763 5764 5761 5760 5758 5757 5755 5751 5747 5745 5742 5739 5736 5732 5728 5722 5717 5713 5708 5704 5699 5693
5729 5732 5734 5736 5738 5740 5742 5745 5747 5748 5750 5752 5753 5752 5753 5753 5753 5753 5755 5757 5757 5757 5756 5756 5756 5755 5754 5750 5750 5748 5745 5742 5740 5736 5732 5729 5726 5721 5716 5711 5707 5703 5698 5693 5687
5718 5720 5723 5725 5726 5729 5732 5734 5736 5738 5741 5742 5744 5744 5744 5745 5745 5745 5746 5747 5747 5748 5748 5749 5748 5747 5748 5744 5742 5741 5739 5736 5734 5730 5727 5724 5720 5716 5712 5707 5701 5697 5692 5686 5680
Wind_Speed
4 3 3 4 4 4 4 4 4 4 4 4 5 6 7 9 9 9 9 9 9 10 10 11 12 14 16 17 19 20 22 24 24 26 25 26 28 28 29 30 30 31 30 29 30
6 6 6 6 6 6 6 5 5 5 5 6 6 6 7 8 9 9 9 9 10 11 13 14 15 15 16 17 19 22 25 26 25 26 27 26 27 27 28 30 32 31 31 31 30
5 5 6 7 7 7 6 6 5 6 6 7 7 7 7 7 7 7 8 9 11 12 13 14 15 15 16 16 18 20 24 26 29 30 30 30 31 32 31 33 30 32 33 32 32
5 6 6 7 6 5 6 7 7 8 9 9 9 8 8 9 8 8 9 10 11 11 11 12 12 11 11 12 14 16 20 23 25 28 29 31 33 34 35 36 36 37 38 38 37
6 7 8 9 9 8 8 9 9 10 11 11 11 10 9 9 10 10 11 11 11 12 13 13 13 12 12 13 14 16 17 18 20 22 24 27 29 33 35 37 38 39 41 43 43
8 9 9 10 11 11 11 11 12 12 13 13 12 11 10 9 10 10 11 12 12 12 12 11 12 13 15 16 17 18 19 20 21 22 24 26 27 29 31 33 35 37 39 41 44
10 10 11 11 11 11 12 12 13 13 13 12 12 11 9 9 9 9 10 11 11 11 11 12 12 13 15 18 20 22 24 26 26 27 29 29 32 32 34 35 36 37 39 39 40
11 12 12 12 12 12 11 10 10 10 11 11 11 9 9 9 9 10 12 12 12 13 15 15 16 18 20 21 23 25 27 31 30 33 34 34 39 37 38 38 39 40 41 42 43
12 14 13 13 12 12 12 12 11 11 11 11 11 10 10 10 10 12 13 14 14 16 18 19 21 23 23 23 25 26 30 30 36 35 35 35 37 39 40 40 41 41 41 42 44
15 15 15 14 13 13 14 12 12 12 11 11 11 10 11 12 12 15 15 16 17 19 21 23 22 23 24 26 29 30 30 32 33 38 35 35 36 39 37 36 37 39 40 41 42
19 17 16 16 15 14 15 15 14 14 13 13 12 13 14 14 15 17 17 18 18 19 21 22 24 25 26 26 26 26 25 26 30 31 29 30 29 34 29 32 33 35 37 38 38
20 17 17 15 16 15 16 18 17 17 15 14 13 12 12 13 16 17 17 19 20 21 22 22 22 22 22 21 21 20 20 20 23 24 24 24 25 27 27 28 29 29 30 31 33
21 18 17 17 19 19 18 19 19 18 17 14 13 12 14 14 14 16 17 18 20 21 22 22 20 18 18 19 19 18 17 18 20 23 24 22 23 22 26 27 28 29 30 31 32
22 20 18 18 19 18 18 19 20 19 19 16 15 15 13 14 14 16 18 18 20 21 21 20 19 18 19 19 18 18 17 17 19 21 20 25 19 25 25 25 26 28 29 30 31
23 23 21 18 19 19 18 18 20 20 20 18 16 14 14 14 15 17 19 19 20 20 21 20 18 18 18 18 17 16 17 18 19 20 22 25 22 24 25 28 28 28 29 29 28
25 23 20 18 17 19 18 17 18 20 20 16 16 16 16 16 16 18 18 19 18 18 18 18 18 18 18 18 16 16 16 16 18 20 21 20 21 17 21 25 28 28 27 27 26
24 23 21 19 18 17 17 18 18 20 20 18 16 17 18 18 18 18 18 18 18 18 16 17 16 17 17 17 17 17 16 18 20 19 13 21 19 20 26 27 26 26 26 27 30
24 23 22 20 20 19 18 18 19 20 20 20 21 21 22 21 20 18 17 16 17 18 15 15 14 15 16 17 18 18 19 19 19 19 14 23 20 27 25 27 26 24 25 30 32
27 25 25 22 21 22 22 22 21 21 21 21 22 23 24 23 20 20 18 17 17 15 15 13 14 14 14 15 16 18 21 22 22 20 18 14 22 28 24 26 26 25 26 29 31
29 30 28 26 24 24 25 25 24 23 23 23 23 23 26 24 23 21 19 18 16 15 15 14 14 16 16 16 17 18 20 24 24 22 19 13 20 25 27 25 24 24 25 27 29
31 33 30 30 30 28 27 27 25 22 22 22 23 23 25 25 24 22 21 20 18 17 16 15 16 17 18 17 21 23 22 21 22 22 23 19 12 26 24 24 25 24 25 29 31
36 37 35 33 32 31 30 30 28 24 24 23 23 23 24 26 25 24 22 21 19 19 18 16 17 18 19 19 21 23 25 24 25 23 23 21 18 20 24 24 27 28 28 32 33
41 39 37 35 33 32 32 32 32 31 28 27 26 26 26 26 27 27 25 22 21 21 20 19 18 18 20 21 21 23 26 23 24 23 21 24 20 25 26 28 31 32 33 35 36
39 39 37 36 34 33 32 33 32 32 30 29 28 28 29 28 28 29 28 25 24 23 22 21 19 20 20 22 24 25 26 25 23 23 23 22 21 24 29 31 32 32 32 35 36
42 40 40 40 36 36 35 35 34 33 31 29 27 26 29 29 29 30 30 27 26 25 24 24 21 22 22 24 21 23 24 24 24 26 22 22 23 28 29 29 30 31 32 34 35
36 37 36 39 37 33 33 35 34 32 31 32 31 31 27 28 30 31 30 30 29 27 27 25 25 25 22 25 23 21 23 23 22 25 27 25 27 30 31 32 32 33 33 34 35
34 35 38 38 37 33 33 31 36 34 33 33 32 32 31 32 29 30 30 32 32 30 30 27 26 26 23 23 25 23 21 24 22 25 27 26 28 31 31 33 34 34 35 35 35
Wind_Direction
292 292 301 313 318 312 299 290 286 283 281 274 268 265 265 266 265 262 260 261 264 261 262 273 269 261 256 251 249 245 242 244 246 251 254 252 253 253 256 256 257 257 255 255 256
286 287 289 292 296 296 289 278 274 269 268 269 270 270 268 266 264 264 264 264 267 266 270 272 269 268 266 261 255 252 251 249 249 250 252 254 254 254 254 254 254 256 257 258 257
308 298 291 290 292 293 280 269 265 268 272 276 278 276 275 271 270 272 273 273 274 269 270 273 275 274 272 268 264 261 259 258 256 255 256 258 258 258 258 259 258 260 259 258 256
317 304 297 294 288 275 266 267 270 273 276 278 277 278 281 283 277 278 277 278 283 283 283 277 273 271 272 274 272 266 261 260 261 262 264 265 266 266 267 269 269 267 265 262 259
308 300 293 288 283 276 267 265 269 273 276 278 278 277 278 280 280 281 283 277 275 277 286 285 283 280 279 280 278 276 275 274 272 270 267 265 265 265 265 266 266 266 267 267 267
310 308 303 293 285 281 279 277 276 277 278 281 280 281 284 285 285 289 293 295 293 287 284 278 272 268 267 267 268 271 272 273 272 271 270 269 268 266 266 265 265 266 266 266 267
305 309 310 299 295 289 282 281 281 282 282 280 280 283 287 287 288 291 297 297 297 295 296 298 297 289 281 278 276 276 279 277 278 279 277 278 275 271 270 270 269 268 267 267 268
291 298 308 304 297 291 290 287 286 284 282 281 280 283 286 286 290 296 300 303 301 301 301 302 301 298 293 290 287 284 284 286 281 281 282 282 282 279 278 276 274 274 273 273 272
281 285 297 305 300 294 289 283 284 285 283 282 281 284 285 283 294 305 307 308 303 303 304 304 303 300 298 297 293 288 285 284 285 282 281 280 279 280 280 279 279 277 275 274 273
284 273 281 292 295 290 286 284 285 286 285 283 281 280 283 282 291 308 301 306 309 310 309 306 304 301 298 295 293 293 290 288 285 286 285 284 280 283 281 279 277 275 274 272 272
288 276 274 280 287 293 287 284 283 281 281 278 276 281 286 284 292 304 304 306 308 313 313 311 308 306 304 302 297 294 291 289 288 289 291 289 290 290 287 284 281 280 279 279 277
287 281 278 276 280 289 290 281 279 278 277 274 274 275 285 293 294 298 309 313 317 322 320 320 317 316 314 309 305 302 299 297 294 297 297 295 297 292 290 287 285 285 284 282 281
282 282 282 284 284 286 285 280 275 276 277 272 272 278 291 290 291 302 312 315 321 326 327 326 325 322 319 314 311 311 309 305 298 301 300 298 295 288 286 285 285 285 283 283 282
277 280 285 291 290 287 282 274 271 273 274 272 275 280 283 281 286 300 309 317 324 330 330 330 328 326 324 321 320 317 312 307 305 304 300 305 294 297 292 287 284 286 286 286 286
271 278 285 293 293 286 282 271 267 267 270 271 274 272 276 275 286 299 306 316 325 329 333 330 326 328 327 327 326 320 318 316 317 318 314 303 300 288 285 289 289 288 290 293 294
272 274 283 291 290 285 278 272 265 262 264 267 268 271 271 274 286 295 303 312 320 325 328 326 327 326 329 327 325 319 316 316 319 322 318 311 295 278 286 294 298 298 298 301 303
269 267 274 283 286 281 276 271 266 262 264 264 264 266 271 278 283 291 297 307 315 318 322 325 324 321 323 324 322 322 317 320 330 326 307 311 297 262 293 299 302 298 296 301 304
267 265 267 276 281 280 273 268 266 265 265 265 265 267 272 277 282 286 290 300 308 312 317 319 319 318 321 324 324 323 319 316 318 315 298 306 295 284 298 304 300 297 300 306 305
261 259 262 268 273 275 271 268 265 266 268 268 267 268 271 275 277 279 283 291 297 300 303 310 311 313 318 315 320 324 322 317 313 310 312 293 291 287 294 303 302 296 299 306 306
255 259 261 263 266 269 270 264 264 264 264 265 267 267 269 270 272 273 274 279 286 290 295 301 304 308 309 310 320 324 326 323 319 314 309 294 292 284 295 299 300 297 297 307 312
254 258 262 266 270 269 265 262 263 264 266 264 264 267 269 268 267 266 268 273 279 283 288 297 302 306 308 310 317 318 319 321 316 312 305 302 292 298 301 298 295 299 305 312 314
257 258 263 264 266 267 262 258 258 263 267 268 266 265 266 266 263 261 262 267 273 277 283 288 295 299 302 305 310 311 314 317 317 315 311 307 305 296 298 299 302 305 313 316 317
259 257 261 262 261 261 260 259 257 259 266 270 267 263 263 263 262 261 261 263 268 273 279 282 288 292 297 297 302 306 311 316 317 312 308 304 303 306 307 311 311 311 312 314 316
257 258 256 259 261 255 258 259 262 261 263 266 269 266 262 261 259 260 262 262 267 270 275 280 284 284 288 292 302 307 309 314 315 312 309 302 305 306 308 306 308 310 313 317 318
257 256 255 260 259 255 257 262 260 256 256 257 265 273 267 258 256 258 261 263 266 270 276 280 281 283 288 292 295 299 304 312 315 312 313 308 311 307 308 310 317 319 324 323 321
254 257 257 258 260 254 257 258 253 256 255 256 259 266 273 267 258 259 264 266 268 267 270 273 279 283 287 290 293 298 303 307 310 306 309 307 311 310 314 320 322 319 322 324 323
256 253 252 255 255 253 253 254 253 255 258 260 261 264 263 265 268 265 262 264 267 270 271 272 276 280 284 287 293 299 304 308 307 305 304 306 309 309 316 318 318 320 323 324 324